Find Starlink 11711

NORAD ID: 64378 Int'l Des: 2025-127 Owner: SPXS Country: US Constellation: starlink operational
別名: STARLINK-11711 [DTC] celestrak
LEOCIRCULAR

現在のビュー

3D地球を読み込み中...

About Starlink 11711

Starlink 11711 (NORAD 64378) is a starlink constellation satellite (v2 mini) launched Jun 13, 2025 by SPXS of US. It operates in LEO, CIRCULAR orbit with a mass of 960.00 kg.

次回通過

Passes for default location (London). Set your location on the main map for personalized predictions.

高度履歴

Loading altitude history...

軌道要素

1 64378U 25127J 26263.94483365 .00133778 00000-0 10262-2 0 9998
2 64378 43.0022 347.3593 0001370 287.0852 72.9866 15.70912366 74322
Epoch: Sep 20, 2026 • Age: 7 hours

現在のステータス

高度 355.9 km
遠地点 / 近地点 N/A
速度 7.70 km/s
衛星直下点 2.79°N, 79.67°E
打ち上げ日 Jun 13, 2025
運用期間 1.2 years
タイプ internet

技術仕様

分類 Payload
質量 960.00 kg
乾燥質量 910.00 kg
長さ 0.30 m
スパン 29.00 m
形状 ? Box + pan
製造者 SPXS
バスタイプ Starlink V2MD
フェーズステータス In Orbit
所有者/国 SPXS/US

Most Searched